This is the latest recevied weather packets stored in our database for station/object WX4FUN-13. If no packets are shown the sender has not sent any weather packets the latest 1 day(s).
| Time | Temp. | Humidity | Pressure | Rain* | Wind** | Luminosity | Snow |
|---|---|---|---|---|---|---|---|
| 1778022262 | 22.22° C | 53% | 1007.9 hPa | 0 mm | 0.89 m/s, 212° | 21 W/m² | - |
| 1778021653 | 22.78° C | 52% | 1007.8 hPa | 0 mm | 0.89 m/s, 238° | 38 W/m² | - |
| 1778021051 | 23.33° C | 51% | 1007.8 hPa | 0 mm | 0.89 m/s, 259° | 66 W/m² | - |
| 1778020451 | 23.33° C | 50% | 1007.6 hPa | 0 mm | 1.34 m/s, 232° | 66 W/m² | - |
| 1778019850 | 23.89° C | 50% | 1007.5 hPa | 0 mm | 0.89 m/s, 234° | 58 W/m² | - |
| 1778019250 | 24.44° C | 49% | 1007.4 hPa | 0 mm | 1.34 m/s, 280° | 72 W/m² | - |
| 1778018650 | 25° C | 47% | 1007.4 hPa | 0 mm | 0.89 m/s, 230° | 74 W/m² | - |
| 1778018051 | 25° C | 48% | 1007.3 hPa | 0 mm | 1.34 m/s, 230° | 213 W/m² | - |
| 1778017447 | 25° C | 47% | 1007.2 hPa | 0 mm | 1.34 m/s, 210° | 244 W/m² | - |
| 1778016847 | 25.56° C | 47% | 1007.3 hPa | 0 mm | 0.89 m/s, 241° | 273 W/m² | - |
| 1778016247 | 25.56° C | 47% | 1007.4 hPa | 0.25 mm | 1.34 m/s, 224° | 289 W/m² | - |
| 1778015649 | 25.56° C | 47% | 1007.3 hPa | 0.25 mm | 1.34 m/s, 232° | 332 W/m² | - |
| 1778015048 | 25.56° C | 46% | 1007.3 hPa | 0.25 mm | 1.34 m/s, 306° | 235 W/m² | - |
| 1778014447 | 26.11° C | 45% | 1007.2 hPa | 0.25 mm | 1.34 m/s, 236° | 326 W/m² | - |
| 1778013845 | 26.11° C | 45% | 1006.9 hPa | 0.25 mm | 1.34 m/s, 231° | 299 W/m² | - |
| 1778013246 | 26.11° C | 45% | 1006.9 hPa | 0.25 mm | 1.34 m/s, 245° | 354 W/m² | - |
| 1778012646 | 26.11° C | 45% | 1006.9 hPa | 0.25 mm | 1.34 m/s, 243° | 183 W/m² | - |
| 1778012046 | 27.22° C | 44% | 1007 hPa | 0.25 mm | 1.34 m/s, 233° | 431 W/m² | - |
| 1778011447 | 27.22° C | 42% | 1007 hPa | 0 mm | 2.24 m/s, 224° | 488 W/m² | - |
| 1778010842 | 27.22° C | 42% | 1007 hPa | 0 mm | 1.79 m/s, 220° | 198 W/m² | - |
| 1778010244 | 27.22° C | 42% | 1006.8 hPa | 0 mm | 1.79 m/s, 236° | 109 W/m² | - |
| 1778009642 | 27.22° C | 41% | 1006.9 hPa | 0 mm | 1.79 m/s, 236° | 115 W/m² | - |
| 1778009042 | 27.78° C | 41% | 1007 hPa | 0 mm | 1.79 m/s, 250° | 119 W/m² | - |
| 1778008443 | 27.78° C | 42% | 1006.9 hPa | 0 mm | 0.89 m/s, 254° | 113 W/m² | - |
| 1778007843 | 27.78° C | 43% | 1007.2 hPa | 0 mm | 1.34 m/s, 256° | 591 W/m² | - |
* Rain latest hour (hover to see other rain measurements)
** Current wind speed in m/s (hover to see current wind gust speed)